TimeEST,TemperatureF,Dew PointF,Humidity,Sea Level PressureIn,VisibilityMPH,Wind Direction,Wind SpeedMPH,Gust SpeedMPH,PrecipitationIn,Events,Conditions,WindDirDegrees,DateUTC
12:58 AM,26.4,23.2,88,30.16,7.0,SSE,2.3,-,N/A,,Clear,150,2013-03-04 05:58:00
1:58 AM,25.3,22.8,90,30.17,7.0,ESE,3.5,-,N/A,,Clear,110,2013-03-04 06:58:00
2:58 AM,26.2,23.9,91,30.17,6.0,SE,3.5,-,N/A,,Clear,130,2013-03-04 07:58:00
3:58 AM,25.7,23.5,92,30.18,7.0,East,1.2,-,N/A,,Clear,80,2013-03-04 08:58:00
4:58 AM,25.0,23.2,93,30.18,6.0,Calm,Calm,-,N/A,,Clear,0,2013-03-04 09:58:00
5:23 AM,24.8,23.0,93,30.17,5.0,Calm,Calm,-,N/A,,Clear,0,2013-03-04 10:23:00
5:53 AM,24.8,23.0,93,30.18,5.0,ESE,1.2,-,N/A,,Clear,120,2013-03-04 10:53:00
5:58 AM,24.1,21.9,91,30.20,4.0,Calm,Calm,-,N/A,,Clear,0,2013-03-04 10:58:00
6:03 AM,24.8,23.0,93,30.18,2.5,Calm,Calm,-,N/A,,Clear,0,2013-03-04 11:03:00
6:08 AM,24.8,23.0,93,30.18,3.0,Calm,Calm,-,N/A,,Clear,0,2013-03-04 11:08:00
6:13 AM,23.0,23.0,100,30.18,3.0,Calm,Calm,-,N/A,,Clear,0,2013-03-04 11:13:00
6:53 AM,24.8,23.0,93,30.20,6.0,Calm,Calm,-,N/A,,Clear,0,2013-03-04 11:53:00
6:58 AM,25.2,23.4,93,30.22,6.0,Calm,Calm,-,N/A,,Clear,0,2013-03-04 11:58:00
7:13 AM,24.8,23.0,93,30.20,2.5,SSE,3.5,-,N/A,,Clear,160,2013-03-04 12:13:00
7:18 AM,24.8,23.0,93,30.20,4.0,SE,3.5,-,N/A,,Clear,140,2013-03-04 12:18:00
7:58 AM,28.4,26.8,94,30.23,4.0,SSE,2.3,-,N/A,,Clear,160,2013-03-04 12:58:00
8:58 AM,35.4,29.3,78,30.24,7.0,Calm,Calm,-,N/A,,Clear,0,2013-03-04 13:58:00
9:58 AM,43.0,29.3,59,30.22,7.0,Variable,1.2,-,N/A,,Partly Cloudy,0,2013-03-04 14:58:00
10:58 AM,49.6,21.7,33,30.22,10.0,North,4.6,-,N/A,,Mostly Cloudy,10,2013-03-04 15:58:00
11:58 AM,54.0,21.0,28,30.20,10.0,Variable,2.3,-,N/A,,Mostly Cloudy,0,2013-03-04 16:58:00
12:58 PM,57.0,21.9,26,30.17,10.0,Variable,1.2,-,N/A,,Partly Cloudy,0,2013-03-04 17:58:00
1:58 PM,61.3,25.7,26,30.13,10.0,Variable,4.6,-,N/A,,Clear,0,2013-03-04 18:58:00
2:58 PM,62.8,27.9,27,30.10,5.0,Variable,5.8,-,N/A,,Haze,0,2013-03-04 19:58:00
3:58 PM,63.3,28.8,27,30.09,10.0,South,3.5,-,N/A,,Clear,190,2013-03-04 20:58:00
4:58 PM,61.3,29.3,30,30.08,10.0,South,11.5,-,N/A,,Clear,190,2013-03-04 21:58:00
5:58 PM,59.7,30.4,33,30.07,10.0,South,6.9,-,N/A,,Clear,170,2013-03-04 22:58:00
6:58 PM,56.3,30.9,38,30.09,10.0,South,6.9,-,N/A,,Partly Cloudy,170,2013-03-04 23:58:00
7:58 PM,51.4,34.7,53,30.09,10.0,SSE,6.9,-,N/A,,Overcast,150,2013-03-05 00:58:00
8:58 PM,52.2,34.0,50,30.07,10.0,SSE,8.1,-,N/A,,Mostly Cloudy,160,2013-03-05 01:58:00
9:58 PM,52.3,33.1,48,30.08,10.0,South,6.9,-,N/A,,Overcast,180,2013-03-05 02:58:00
10:58 PM,53.2,34.2,48,30.09,10.0,South,6.9,-,N/A,,Overcast,180,2013-03-05 03:58:00
11:58 PM,50.2,37.6,62,30.07,10.0,SSE,8.1,-,N/A,,Overcast,150,2013-03-05 04:58:00